Time_in_sec,Latitude,Longitude,Altitude,Nbsat,valid_data
1312467966.27106810,47.37635040,8.55015278,490.43463135,2,1
1312468061.12308049,47.37642670,8.55020046,495.98519897,2,1
1312468061.17208147,47.37642670,8.55020046,495.98278809,2,1
1312468061.22316575,47.37642670,8.55020046,495.98031616,2,1
1312468061.27111149,47.37642670,8.55020142,495.97467041,2,1
1312468061.32014680,47.37642670,8.55020142,495.97219849,2,1
1312468061.37107778,47.37642670,8.55020142,495.96972656,2,1
1312468061.42309237,47.37642670,8.55020142,495.96716309,2,1
1312468061.47107911,47.37642670,8.55020142,495.96459961,2,1
1312468061.52420568,47.37642670,8.55020046,495.95645142,2,1
1312468061.57110524,47.37642670,8.55020046,495.95388794,2,1
1312468061.62020540,47.37642670,8.55020046,495.95126343,2,1
1312468061.66311622,47.37642670,8.55020046,495.94860840,2,1
1312468061.72421551,47.37642670,8.55020046,495.94644165,2,1
1312468061.77213097,47.37642670,8.55020046,495.94525146,2,1
1312468061.82309031,47.37642670,8.55020046,495.94259644,2,1
1312468061.87119269,47.37642670,8.55019951,495.93994141,2,1
1312468061.92421079,47.37642670,8.55019951,495.93722534,2,1
1312468061.97119212,47.37642670,8.55019951,495.93447876,2,1
1312468062.02422023,47.37642670,8.55019951,495.93893433,2,1
1312468062.07211185,47.37642670,8.55019951,495.93624878,2,1
1312468062.12311292,47.37642670,8.55019855,495.93353271,2,1
1312468062.17220235,47.37642670,8.55019855,495.93078613,2,1
1312468062.22309470,47.37642670,8.55019855,495.92797852,2,1
1312468062.27220678,47.37642670,8.55019855,495.92944336,2,1
1312468062.32420516,47.37642670,8.55019855,495.92669678,2,1
1312468062.37108064,47.37642670,8.55019855,495.92388916,2,1
1312468062.42310500,47.37642670,8.55019760,495.92105103,2,1
1312468062.47119236,47.37642670,8.55019760,495.91818237,2,1
1312468062.52423143,47.37642670,8.55019855,495.91986084,2,1
1312468062.57220316,47.37642670,8.55019855,495.91705322,2,1
1312468062.62315392,47.37642670,8.55019855,495.91421509,2,1
1312468062.66381168,47.37642670,8.55019855,495.91131592,2,1
1312468062.72320271,47.37642670,8.55019760,495.90896606,2,1
1312468062.77214861,47.37642670,8.55019760,495.91564941,2,1
1312468062.82319355,47.37642670,8.55019760,495.91281128,2,1
1312468062.87209916,47.37642670,8.55019760,495.90994263,2,1
1312468062.92320466,47.37642670,8.55019760,495.90701294,2,1
1312468062.97113299,47.37642670,8.55019760,495.90405273,2,1
1312468063.02422142,47.37642670,8.55019760,495.92095947,2,1
1312468063.07221127,47.37642670,8.55019760,495.91815186,2,1
1312468063.12353873,47.37642670,8.55019760,495.91531372,2,1
1312468063.17221022,47.37642670,8.55019760,495.91247559,2,1
1312468063.22320127,47.37642670,8.55019760,495.90957642,2,1
1312468063.27209926,47.37642670,8.55019855,495.93389893,2,1
1312468063.32421565,47.37642670,8.55019855,495.93121338,2,1
1312468063.37209535,47.37642670,8.55019855,495.92846680,2,1
1312468063.42307830,47.37642670,8.55019855,495.92572021,2,1
1312468063.47211289,47.37642670,8.55019855,495.92294312,2,1
1312468063.52414966,47.37642670,8.55019951,495.95916748,2,1
1312468063.57222080,47.37642670,8.55019951,495.95660400,2,1
1312468063.62409496,47.37642670,8.55019855,495.95401001,2,1
1312468063.66359329,47.37642670,8.55019855,495.95135498,2,1
1312468063.72020316,47.37642670,8.55019855,495.94921875,2,1
1312468063.77212811,47.37642670,8.55020046,496.00598145,2,1
1312468063.82310033,47.37642670,8.55020046,496.00363159,2,1
1312468063.87114573,47.37642670,8.55020046,496.00128174,2,1
1312468063.92342257,47.37642670,8.55020046,495.99890137,2,1
1312468063.97111177,47.37642670,8.55019951,495.99645996,2,1
1312468064.02018046,47.37642670,8.55020046,496.05957031,2,1
1312468064.07208514,47.37642670,8.55020046,496.05746460,2,1
1312468064.12017703,47.37642670,8.55020046,496.05529785,2,1
1312468064.17110610,47.37642670,8.55020046,496.05310059,2,1
1312468064.22319841,47.37642670,8.55020046,496.05087280,2,1
1312468064.27109742,47.37642670,8.55020046,496.12286377,2,1
1312468064.32016397,47.37642670,8.55019951,496.12094116,2,1
1312468064.36319399,47.37642670,8.55019951,496.11895752,2,1
1312468064.42309904,47.37642670,8.55019951,496.11737061,2,1
1312468064.47209692,47.37642670,8.55019951,496.11492920,2,1
1312468064.52308130,47.37642670,8.55019951,496.20376587,2,1
1312468064.57221198,47.37642670,8.55019951,496.20214844,2,1
1312468064.62408352,47.37642670,8.55019951,496.20046997,2,1
1312468064.66310096,47.37642670,8.55019951,496.19873047,2,1
1312468064.72309709,47.37642670,8.55019951,496.19735718,2,1
1312468064.77213430,47.37642670,8.55019951,496.29513550,2,1
1312468064.82308388,47.37642670,8.55019951,496.29385376,2,1
1312468064.87209082,47.37642670,8.55019951,496.29251099,2,1
1312468064.92413020,47.37642670,8.55019951,496.29113770,2,1
1312468064.97219849,47.37642670,8.55019951,496.28973389,2,1
1312468065.02306771,47.37642670,8.55020046,496.42480469,2,1
1312468065.07120085,47.37642670,8.55020046,496.42398071,2,1
1312468065.12420535,47.37642670,8.55020046,496.42312622,2,1
1312468065.17220306,47.37642670,8.55020046,496.42224121,2,1
1312468065.22328734,47.37642670,8.55020046,496.42132568,2,1
1312468065.27209616,47.37642670,8.55020046,496.58178711,2,1
1312468065.32309890,47.37642670,8.55020046,496.58157349,2,1
1312468065.37113500,47.37642670,8.55020046,496.58132935,2,1
1312468065.42325783,47.37642670,8.55020046,496.58102417,2,1
1312468065.47209311,47.37642670,8.55020046,496.58068848,2,1
1312468065.52335930,47.37642670,8.55020237,496.75421143,2,1
1312468065.57218266,47.37642670,8.55020237,496.75460815,2,1
1312468065.62310123,47.37642670,8.55020237,496.75494385,2,1
1312468065.66327238,47.37642670,8.55020237,496.75527954,2,1
1312468065.72308969,47.37642288,8.55020237,496.75549316,2,1
1312468065.77233243,47.37642670,8.55020428,496.94467163,2,1
1312468065.82306767,47.37642288,8.55020332,496.94577026,2,1
1312468065.87107444,47.37642288,8.55020332,496.94680786,2,1
1312468065.92323470,47.37642288,8.55020332,496.94784546,2,1
1312468065.97109246,47.37642288,8.55020332,496.94885254,2,1
1312468066.02383065,47.37642288,8.55020523,497.14566040,2,1
1312468066.07205796,47.37642288,8.55020523,497.14752197,2,1
1312468066.12309337,47.37642288,8.55020523,497.14932251,2,1
1312468066.16412616,47.37642288,8.55020523,497.15109253,2,1
1312468066.22308731,47.37642288,8.55020523,497.15246582,2,1
1312468066.27109027,47.37642288,8.55020714,497.35653687,2,1
1312468066.32310438,47.37642288,8.55020714,497.35913086,2,1
1312468066.37111282,47.37642288,8.55020714,497.36169434,2,1
1312468066.42346501,47.37642288,8.55020714,497.36422729,2,1
1312468066.47209287,47.37642288,8.55020714,497.36669922,2,1
1312468066.52321744,47.37642288,8.55020809,497.56829834,2,1
1312468066.57210541,47.37642288,8.55020809,497.57159424,2,1
1312468066.62308002,47.37642288,8.55020809,497.57485962,2,1
1312468066.66411018,47.37642288,8.55020809,497.57809448,2,1
1312468066.72320509,47.37641907,8.55020809,497.58065796,2,1
1312468066.77207518,47.37642288,8.55021000,497.79064941,2,1
1312468066.82024932,47.37642288,8.55021000,497.79470825,2,1
1312468066.87135220,47.37642288,8.55021000,497.79873657,2,1
1312468066.92021465,47.37641907,8.55021000,497.80273438,2,1
1312468066.97213578,47.37641907,8.55021000,497.80667114,2,1
1312468067.02308154,47.37642288,8.55021095,498.02062988,2,1
1312468067.07199812,47.37641907,8.55021095,498.02545166,2,1
1312468067.12020779,47.37641907,8.55021095,498.03024292,2,1
1312468067.17220354,47.37641907,8.55021095,498.03500366,2,1
1312468067.22025657,47.37641907,8.55021095,498.03970337,2,1
1312468067.27209473,47.37641907,8.55021381,498.26147461,2,1
1312468067.32012868,47.37641907,8.55021381,498.26705933,2,1
1312468067.37213993,47.37641907,8.55021381,498.27261353,2,1
1312468067.42309356,47.37641907,8.55021381,498.27816772,2,1
1312468067.47203088,47.37641907,8.55021381,498.28366089,2,1
1312468067.52444124,47.37641907,8.55021572,498.50189209,2,1
1312468067.57216430,47.37641907,8.55021572,498.50830078,2,1
1312468067.62014890,47.37641907,8.55021572,498.51464844,2,1
1312468067.66366339,47.37641907,8.55021572,498.52096558,2,1
1312468067.72395349,47.37641907,8.55021572,498.52597046,2,1
1312468067.77222013,47.37641907,8.55021572,498.73855591,2,1
1312468067.82308149,47.37641907,8.55021667,498.74569702,2,1
1312468067.87209892,47.37641907,8.55021667,498.75277710,2,1
1312468067.92417312,47.37641907,8.55021667,498.75982666,2,1
1312468067.97208881,47.37641907,8.55021667,498.76684570,2,1
1312468068.02418137,47.37641907,8.55021667,498.96591187,2,1
1312468068.07209134,47.37641907,8.55021667,498.97369385,2,1
1312468068.12309766,47.37641907,8.55021667,498.98144531,2,1
1312468068.17109752,47.37641907,8.55021763,498.98916626,2,1
1312468068.22309113,47.37641907,8.55021763,498.99685669,2,1
1312468068.27120113,47.37641907,8.55021763,499.19262695,2,1
1312468068.32312298,47.37641907,8.55021763,499.20108032,2,1
1312468068.37166882,47.37641907,8.55021763,499.20953369,2,1
1312468068.42309904,47.37641907,8.55021763,499.21792603,2,1
1312468068.47208118,47.37641525,8.55021763,499.22625732,2,1
1312468068.52365303,47.37641907,8.55021954,499.41903687,2,1
1312468068.57221866,47.37641525,8.55021954,499.42816162,2,1
1312468068.62306452,47.37641525,8.55021954,499.43722534,2,1
1312468068.66339946,47.37641525,8.55021954,499.44625854,2,1
1312468068.72414899,47.37641525,8.55021954,499.45346069,2,1
1312468068.77213979,47.37641907,8.55022144,499.64132690,2,1
1312468068.82308483,47.37641907,8.55022240,499.65112305,2,1
1312468068.87209821,47.37641525,8.55022240,499.66085815,2,1
1312468068.92312527,47.37641525,8.55022240,499.67059326,2,1
1312468068.97211814,47.37641525,8.55022240,499.68026733,2,1
1312468069.02307725,47.37641907,8.55022526,499.85397339,2,1
1312468069.07234907,47.37641907,8.55022526,499.86437988,2,1
1312468069.12308192,47.37641907,8.55022526,499.87478638,2,1
1312468069.16312265,47.37641907,8.55022526,499.88513184,2,1
1312468069.22320652,47.37641907,8.55022526,499.89340210,2,1
1312468069.27209306,47.37641907,8.55022717,500.05856323,2,1
1312468069.32311320,47.37641907,8.55022717,500.06954956,2,1
1312468069.37221026,47.37641907,8.55022717,500.08047485,2,1
1312468069.42307687,47.37641907,8.55022717,500.09140015,2,1
1312468069.47118640,47.37641907,8.55022717,500.10229492,2,1
1312468069.52413321,47.37641907,8.55022907,500.26248169,2,1
1312468069.57108521,47.37641907,8.55022907,500.27401733,2,1
1312468069.62312126,47.37641907,8.55022907,500.28546143,2,1
1312468069.66307688,47.37641907,8.55022907,500.29690552,2,1
1312468069.72415376,47.37641907,8.55022907,500.30603027,2,1
1312468069.77119756,47.37641907,8.55023098,500.45941162,2,1
1312468069.82310319,47.37641907,8.55023098,500.47137451,2,1
1312468069.87110734,47.37641907,8.55023098,500.48330688,2,1
1312468069.92309189,47.37641907,8.55023098,500.49520874,2,1
1312468069.97108603,47.37641907,8.55023098,500.50708008,2,1
1312468070.02020884,47.37641907,8.55023193,500.65518188,2,1
1312468070.07106614,47.37641907,8.55023193,500.66757202,2,1
1312468070.12019658,47.37641907,8.55023193,500.67996216,2,1
1312468070.17221022,47.37641907,8.55023193,500.69232178,2,1
1312468070.22327185,47.37641907,8.55023193,500.70462036,2,1
1312468070.27219963,47.37641525,8.55023289,500.84561157,2,1
1312468070.32327986,47.37641525,8.55023289,500.85839844,2,1
1312468070.37108278,47.37641525,8.55023384,500.87115479,2,1
1312468070.41111588,47.37641525,8.55023384,500.88385010,2,1
1312468070.47111917,47.37641525,8.55023384,500.89398193,2,1
1312468070.52014637,47.37641525,8.55023384,501.03488159,2,1
1312468070.57122850,47.37641525,8.55023384,501.04806519,2,1
1312468070.62307906,47.37641525,8.55023479,501.06118774,2,1
1312468070.66411042,47.37641525,8.55023479,501.07431030,2,1
1312468070.72012520,47.37641525,8.55023479,501.08477783,2,1
1312468070.77210832,47.37641525,8.55023479,501.22238159,2,1
1312468070.82309985,47.37641525,8.55023479,501.23596191,2,1
1312468070.87207961,47.37641525,8.55023479,501.24951172,2,1
1312468070.92350864,47.37641144,8.55023479,501.26300049,2,1
1312468070.97168255,47.37641144,8.55023575,501.27645874,2,1
1312468071.02409816,47.37641525,8.55023575,501.40042114,2,1
1312468071.07107258,47.37641525,8.55023575,501.41427612,2,1
1312468071.12310982,47.37641144,8.55023575,501.42810059,2,1
1312468071.17112875,47.37641144,8.55023575,501.44189453,2,1
1312468071.22420406,47.37641144,8.55023575,501.45562744,2,1
1312468071.27118564,47.37641525,8.55023575,501.56945801,2,1
1312468071.32413626,47.37641525,8.55023575,501.58358765,2,1
1312468071.37119579,47.37641525,8.55023575,501.59765625,2,1
1312468071.42307520,47.37641144,8.55023670,501.61166382,2,1
1312468071.47210598,47.37641144,8.55023670,501.62567139,2,1
1312468071.52420664,47.37641525,8.55023861,501.74057007,2,1
1312468071.57207346,47.37641144,8.55023861,501.75494385,2,1
1312468071.62307739,47.37641144,8.55023861,501.76928711,2,1
1312468071.66405320,47.37641144,8.55023861,501.78359985,2,1
1312468071.72329879,47.37641144,8.55023861,501.79501343,2,1
1312468071.77213669,47.37641144,8.55023956,501.89944458,2,1
1312468071.82345343,47.37641144,8.55024052,501.91403198,2,1
1312468071.87113023,47.37641144,8.55024052,501.92858887,2,1
1312468071.92420721,47.37641144,8.55024052,501.94308472,2,1
1312468071.97113919,47.37641144,8.55024052,501.95755005,2,1
1312468072.02311730,47.37641144,8.55024147,502.05404663,2,1
1312468072.07506585,47.37641144,8.55024147,502.06881714,2,1
1312468072.12311459,47.37641144,8.55024147,502.08355713,2,1
1312468072.17119980,47.37641144,8.55024147,502.09826660,2,1
1312468072.22307825,47.37641144,8.55024147,502.11294556,2,1
1312468072.27113199,47.37641144,8.55024338,502.20291138,2,1
1312468072.32423377,47.37641144,8.55024338,502.21789551,2,1
1312468072.37206602,47.37641144,8.55024338,502.23284912,2,1
1312468072.42347097,47.37641144,8.55024338,502.24774170,2,1
1312468072.47121358,47.37641144,8.55024338,502.26260376,2,1
1312468072.52312350,47.37641144,8.55024338,502.34576416,2,1
1312468072.57166481,47.37641144,8.55024338,502.36087036,2,1
1312468072.62310290,47.37641144,8.55024338,502.37594604,2,1
1312468072.66310072,47.37641144,8.55024338,502.39099121,2,1
1312468072.72319531,47.37640762,8.55024338,502.40298462,2,1
1312468072.77213264,47.37640762,8.55024529,502.48519897,2,1
1312468072.82427192,47.37640762,8.55024529,502.50045776,2,1
1312468072.87120461,47.37640762,8.55024529,502.51568604,2,1
1312468072.92426658,47.37640762,8.55024529,502.53088379,2,1
1312468072.97112370,47.37640762,8.55024529,502.54602051,3,1
1312468073.02308297,47.37640762,8.55024624,502.62066650,3,1
1312468073.07207131,47.37640762,8.55024624,502.63607788,3,1
1312468073.12323189,47.37640762,8.55024624,502.65142822,3,1
1312468073.17220950,47.37640762,8.55024624,502.66671753,3,1
1312468073.22331047,47.37640762,8.55024624,502.68197632,3,1
1312468073.27206469,47.37640762,8.55024719,502.74850464,3,1
1312468073.32408762,47.37640762,8.55024719,502.76394653,3,1
1312468073.37106586,47.37640762,8.55024719,502.77932739,3,1
1312468073.42308950,47.37640762,8.55024719,502.79467773,3,1
1312468073.47109699,47.37640762,8.55024719,502.80996704,3,1
1312468073.52414227,47.37640762,8.55024815,502.87088013,3,1
1312468073.57206941,47.37640762,8.55024815,502.88632202,3,1
1312468073.62329388,47.37640762,8.55024815,502.90176392,3,1
1312468073.67132759,47.37640762,8.55024815,502.91714478,3,1
1312468073.72001863,47.37640762,8.55024815,502.93249512,3,1
1312468073.77210975,47.37640762,8.55024815,502.98825073,3,1
1312468073.82306838,47.37640762,8.55024815,503.00372314,3,1
1312468073.87208509,47.37640762,8.55024815,503.01916504,3,1
1312468073.92412210,47.37640762,8.55024815,503.03457642,3,1
1312468073.97107291,47.37640381,8.55024815,503.04998779,3,1
1312468074.02414012,47.37640381,8.55024910,503.10153198,3,1
1312468074.07206917,47.37640381,8.55024910,503.11706543,3,1
1312468074.12309098,47.37640381,8.55024910,503.13256836,3,1
1312468074.17177653,47.37640381,8.55024910,503.14807129,3,1
1312468074.22410440,47.37640381,8.55024910,503.16351318,3,1
1312468074.27211285,47.37640381,8.55025005,503.20672607,3,1
1312468074.32341838,47.37640381,8.55025005,503.22222900,3,1
1312468074.37221837,47.37640381,8.55025005,503.23770142,3,1
1312468074.41274834,47.37640381,8.55025005,503.25317383,3,1
1312468074.47112226,47.37640381,8.55025005,503.26550293,3,1
1312468074.52424884,47.37640381,8.55025005,503.30633545,3,1
1312468074.57221842,47.37639999,8.55025005,503.32177734,3,1
1312468074.62310839,47.37639999,8.55025005,503.33718872,3,1
1312468074.67217374,47.37639999,8.55025005,503.35256958,3,1
1312468074.72311163,47.37639999,8.55025005,503.36788940,3,1
1312468074.77105927,47.37639999,8.55025101,503.41317749,3,1
1312468074.82330656,47.37639999,8.55025101,503.42858887,3,1
1312468074.87118196,47.37639999,8.55025101,503.44393921,3,1
1312468074.92311621,47.37639999,8.55025101,503.45925903,3,1
1312468074.97119784,47.37639999,8.55025101,503.47454834,3,1
1312468075.02306938,47.37639999,8.55025101,503.51589966,3,1
1312468075.07267118,47.37639999,8.55025101,503.53125000,3,1
1312468075.12319469,47.37639999,8.55025101,503.54656982,3,1
1312468075.17221451,47.37639999,8.55025101,503.56182861,3,1
1312468075.22320509,47.37639999,8.55025101,503.57705688,3,1
1312468075.27209544,47.37639999,8.55025101,503.61831665,3,1
1312468075.32411885,47.37639999,8.55025101,503.63357544,3,1
1312468075.37212849,47.37639999,8.55025101,503.64883423,3,1
1312468075.42306948,47.37639618,8.55025101,503.66403198,3,1
1312468075.47213650,47.37639618,8.55025101,503.67916870,3,1
1312468075.52312613,47.37639999,8.55025196,503.72341919,3,1
1312468075.57113719,47.37639999,8.55025196,503.73864746,3,1
1312468075.62320995,47.37639999,8.55025196,503.75387573,3,1
1312468075.66308355,47.37639999,8.55025196,503.76904297,3,1
1312468075.72310925,47.37639618,8.55025196,503.78115845,3,1
1312468075.77221608,47.37639999,8.55025291,503.83087158,3,1
1312468075.82311893,47.37639999,8.55025291,503.84609985,3,1
1312468075.87222552,47.37639999,8.55025291,503.86126709,3,1
1312468075.92421007,47.37639618,8.55025291,503.87640381,3,1
1312468075.97110343,47.37639618,8.55025196,503.89147949,3,1
1312468076.02022696,47.37639618,8.55025101,503.93746948,3,1
1312468076.07204747,47.37639618,8.55025101,503.95260620,3,1
1312468076.12019968,47.37639618,8.55025101,503.96771240,3,1
1312468076.17186046,47.37639618,8.55025101,503.98275757,3,1
1312468076.22309899,47.37639618,8.55025101,503.99777222,3,1
1312468076.27212000,47.37639618,8.55025005,504.04794312,3,1
1312468076.32312012,47.37639618,8.55025005,504.06301880,3,1
1312468076.36012077,47.37639618,8.55025005,504.07809448,3,1
1312468076.42309833,47.37639618,8.55025005,504.09011841,3,1
1312468076.47108054,47.37639618,8.55025005,504.10809326,3,1
1312468076.52310228,47.37639618,8.55025005,504.15820312,3,1
1312468076.57114434,47.37639618,8.55024910,504.17327881,3,1
1312468076.62104511,47.37639618,8.55024910,504.18829346,3,1
1312468076.66339731,47.37639618,8.55024910,504.20330811,3,1
1312468076.72021151,47.37639618,8.55024910,504.21530151,3,1
1312468076.77210665,47.37639618,8.55025005,504.26516724,3,1
1312468076.82326484,47.37639618,8.55024910,504.28018188,3,1
1312468076.87211895,47.37639618,8.55024910,504.29519653,3,1
1312468076.92307758,47.37639236,8.55024910,504.31015015,3,1
1312468076.97222424,47.37639236,8.55024910,504.32507324,3,1
1312468077.02351642,47.37639618,8.55024910,504.36987305,3,1
1312468077.07213902,47.37639236,8.55024910,504.38485718,3,1
1312468077.12376213,47.37639236,8.55024910,504.39978027,3,1
1312468077.16327047,47.37639236,8.55024910,504.41467285,3,1
1312468077.22309399,47.37639236,8.55024910,504.42654419,3,1
1312468077.27211285,47.37639236,8.55024815,504.47055054,3,1
1312468077.32309628,47.37639236,8.55024815,504.48547363,3,1
1312468077.37222457,47.37639236,8.55024815,504.50033569,3,1
1312468077.42349768,47.37639236,8.55024815,504.51519775,3,1
1312468077.47220898,47.37639236,8.55024815,504.52999878,3,1
1312468077.52309513,47.37639236,8.55024719,504.56344604,3,1
1312468077.57220340,47.37638855,8.55024719,504.57824707,3,1
1312468077.62310958,47.37638855,8.55024719,504.59301758,3,1
1312468077.67211437,47.37638855,8.55024719,504.60772705,3,1
1312468077.72311068,47.37638855,8.55024719,504.62240601,3,1
1312468077.77211595,47.37638855,8.55024624,504.64981079,3,1
1312468077.82310295,47.37638855,8.55024624,504.66445923,3,1
1312468077.87164378,47.37638855,8.55024624,504.67907715,3,1
1312468077.92421532,47.37638855,8.55024624,504.69366455,3,1
1312468077.97185946,47.37638855,8.55024624,504.70822144,3,1
1312468078.02422071,47.37638855,8.55024529,504.72897339,3,1
1312468078.07221508,47.37638855,8.55024529,504.74349976,3,1
1312468078.12384844,47.37638855,8.55024433,504.75802612,3,1
1312468078.17115355,47.37638855,8.55024433,504.77249146,3,1
1312468078.22311354,47.37638474,8.55024433,504.78695679,3,1
1312468078.27163315,47.37638474,8.55024433,504.81063843,3,1
1312468078.32343078,47.37638474,8.55024433,504.82507324,3,1
1312468078.37174320,47.37638474,8.55024338,504.83947754,3,1
1312468078.42420554,47.37638474,8.55024338,504.85388184,3,1
1312468078.47607827,47.37638474,8.55024338,504.86822510,3,1
1312468078.52416396,47.37638474,8.55024242,504.89315796,3,1
1312468078.57214475,47.37638474,8.55024147,504.90747070,3,1
1312468078.62308335,47.37638474,8.55024147,504.92178345,3,1
1312468078.66313148,47.37638474,8.55024147,504.93606567,3,1
1312468078.72321916,47.37638474,8.55024147,504.94747925,3,1
1312468078.77118659,47.37638474,8.55023956,504.97933960,3,1
1312468078.82327271,47.37638092,8.55023956,504.99362183,3,1
1312468078.87219810,47.37638092,8.55023956,505.00787354,3,1
1312468078.92021799,47.37638092,8.55023956,505.02206421,3,1
1312468078.97174668,47.37638092,8.55023861,505.03622437,4,1
1312468079.02412248,47.37638092,8.55023766,505.05908203,4,1
1312468079.07176208,47.37638092,8.55023766,505.07321167,4,1
1312468079.12319589,47.37638092,8.55023670,505.08728027,4,1
1312468079.17217278,47.37638092,8.55023670,505.10134888,4,1
1312468079.22329140,47.37638092,8.55023670,505.11535645,4,1
1312468079.27108574,47.37637711,8.55023479,505.14166260,4,1
1312468079.32017660,47.37637711,8.55023479,505.15563965,4,1
1312468079.37246799,47.37637711,8.55023479,505.16955566,4,1
1312468079.42309952,47.37637711,8.55023384,505.18344116,4,1
1312468079.47163677,47.37637711,8.55023384,505.19729614,4,1
1312468079.52321291,47.37637711,8.55023289,505.21154785,4,1
1312468079.57208323,47.37637711,8.55023289,505.22534180,4,1
1312468079.62416959,47.37637711,8.55023193,505.23910522,4,1
1312468079.67117953,47.37637711,8.55023193,505.25283813,4,1
1312468079.72020388,47.37637711,8.55023193,505.26647949,4,1
